This is the latest recevied weather packets stored in our database for station/object AD8BV. If no packets are shown the sender has not sent any weather packets the latest 10 day(s).
| Time | Temp. | Humidity | Pressure | Rain* | Wind** | Luminosity | Snow |
|---|---|---|---|---|---|---|---|
| 1778064080 | 2.78° C | 85% | 1011.7 hPa | 0 mm | - | 3 W/m² | - |
| 1778063778 | 2.78° C | 86% | 1011.9 hPa | 0 mm | - | 2 W/m² | - |
| 1778063474 | 3.33° C | 84% | 1011.7 hPa | 0 mm | - | 1 W/m² | - |
| 1778063173 | 3.33° C | 83% | 1011.4 hPa | 0 mm | - | 0 W/m² | - |
| 1778062870 | 3.89° C | 81% | 1011.7 hPa | 0 mm | - | 0 W/m² | - |
| 1778062566 | 3.89° C | 79% | 1011.5 hPa | 0 mm | - | 0 W/m² | - |
| 1778062263 | 3.89° C | 77% | 1011.4 hPa | 0 mm | - | 0 W/m² | - |
| 1778061962 | 3.89° C | 77% | 1011.6 hPa | 0 mm | - | 0 W/m² | - |
| 1778061659 | 4.44° C | 76% | 1011.4 hPa | 0 mm | - | 0 W/m² | - |
| 1778061358 | 4.44° C | 77% | 1011.7 hPa | 0 mm | - | 0 W/m² | - |
| 1778061054 | 5° C | 75% | 1011.6 hPa | 0 mm | - | 0 W/m² | - |
| 1778060752 | 5° C | 72% | 1011.7 hPa | 0 mm | - | 0 W/m² | - |
| 1778060449 | 5.56° C | 73% | 1011.6 hPa | 0 mm | - | 0 W/m² | - |
| 1778060147 | 5.56° C | 72% | 1011.4 hPa | 0 mm | - | 0 W/m² | - |
| 1778059844 | 5.56° C | 72% | 1011.3 hPa | 0 mm | - | 0 W/m² | - |
| 1778059542 | 6.11° C | 72% | 1011.4 hPa | 0 mm | - | 0 W/m² | - |
| 1778059239 | 6.11° C | 68% | 1011.3 hPa | 0 mm | - | 0 W/m² | - |
| 1778058937 | 6.67° C | 71% | 1010.8 hPa | 0 mm | - | 0 W/m² | - |
| 1778058634 | 6.67° C | 69% | 1011 hPa | 0 mm | - | 0 W/m² | - |
| 1778058332 | 6.67° C | 67% | 1011 hPa | 0 mm | - | 0 W/m² | - |
| 1778058028 | 6.67° C | 67% | 1010.9 hPa | 0 mm | - | 0 W/m² | - |
| 1778057725 | 6.67° C | 67% | 1010.9 hPa | 0 mm | - | 0 W/m² | - |
| 1778057421 | 6.67° C | 68% | 1011.1 hPa | 0 mm | - | 0 W/m² | - |
| 1778057119 | 6.67° C | 67% | 1011.2 hPa | 0 mm | - | 0 W/m² | - |
| 1778056814 | 6.67° C | 67% | 1010.9 hPa | 0 mm | - | 0 W/m² | - |
* Rain latest hour (hover to see other rain measurements)
** Current wind speed in m/s (hover to see current wind gust speed)